Date String (YYYY-MM-DD hh:mm:ss) UTC,Instrument flags,Ambient pressure (hPa),Sample flow (lpm),Bypass flow (lpm),Sample temperature (°C),Ambient temperature (°C),ASC tube jacket temperature (°C),LED temperature (°C),Box temperature (°C),Sample RH (%),Span deviation,Mass concentration (μg/m³),Mass concentration (μg/m³),Mass concentration (μg/m³)
DateTimeUTC,F1_M11,P_M11,Q1_M11,Q2_M11,T1_M11,T2_M11,T3_M11,T4_M11,T5_M11,U1_M11,ZSPAN_M11,X0_M11,X2_M11,X1_M11
2021-09-14 21:00:00,,0827.8,5.01,0.00,29.9,27.9,00.0,39.0,31.5,31.5,0000.7,0019.83,0010.30,0009.08
2021-09-14 21:01:00,,0827.9,5.00,0.00,29.9,28.2,00.0,39.0,31.5,31.4,0000.5,0020.20,0010.34,0009.12
2021-09-14 21:02:00,,0828.0,4.99,0.00,29.9,28.4,00.0,39.0,31.6,32.5,0000.4,0020.38,0010.30,0009.11
2021-09-14 21:03:00,,0828.1,5.01,0.00,30.0,28.6,00.0,39.0,31.7,31.9,0000.6,0019.79,0010.35,0009.11
2021-09-14 21:04:00,,0828.1,5.00,0.00,30.0,28.8,00.0,39.0,31.7,31.9,0000.4,0020.58,0010.41,0009.12
2021-09-14 21:05:00,,0828.2,4.98,0.00,30.0,28.9,00.0,39.0,31.8,32.4,0000.4,0021.13,0010.45,0009.13
2021-09-14 21:06:00,,0828.1,5.02,0.00,30.1,29.1,00.0,39.0,31.8,31.8,0000.6,0020.97,0010.52,0009.18
2021-09-14 21:07:00,,0828.1,4.99,0.00,30.1,29.2,00.0,39.0,31.9,32.2,0000.5,0021.26,0010.64,0009.26
2021-09-14 21:08:00,,0828.1,5.00,0.00,30.2,29.3,00.0,39.1,31.9,32.3,0000.4,0021.72,0010.74,0009.32
2021-09-14 21:09:00,,0827.9,5.00,0.00,30.2,28.6,00.0,39.1,31.8,31.0,0000.1,0022.34,0010.83,0009.37
2021-09-14 21:10:00,,0827.9,5.00,0.00,30.0,26.7,00.0,39.1,31.2,31.5,-000.4,0021.85,0010.90,0009.39
2021-09-14 21:11:00,,0827.8,4.99,0.00,29.9,25.9,00.0,39.0,31.0,32.4,-000.5,0022.35,0010.90,0009.38
2021-09-14 21:12:00,,0827.8,5.01,0.00,29.8,26.1,00.0,39.0,31.1,32.5,-000.4,0021.63,0010.93,0009.36
2021-09-14 21:13:00,,0827.8,5.00,0.00,29.7,26.6,00.0,39.0,31.1,31.9,-000.3,0022.05,0010.93,0009.36
2021-09-14 21:14:00,,0827.9,5.00,0.00,29.7,27.0,00.0,38.9,31.2,32.1,-000.4,0022.49,0010.95,0009.37
2021-09-14 21:15:00,,0827.9,5.00,0.00,29.7,27.5,00.0,38.9,31.3,31.0,-000.4,0022.29,0010.98,0009.39
2021-09-14 21:16:00,,0827.9,4.99,0.00,29.7,27.9,00.0,38.9,31.4,31.2,-000.2,0022.40,0011.06,0009.42
2021-09-14 21:17:00,,0827.9,5.00,0.00,29.8,28.2,00.0,38.9,31.5,32.0,-000.0,0022.27,0010.98,0009.41
2021-09-14 21:18:00,,0828.0,5.00,0.00,29.8,28.4,00.0,38.9,31.6,30.5,-000.1,0022.01,0010.91,0009.38
2021-09-14 21:19:00,,0827.9,5.01,0.00,29.8,28.6,00.0,38.9,31.6,30.8,-000.0,0022.21,0010.86,0009.37
2021-09-14 21:20:00,,0827.9,4.99,0.00,29.9,28.8,00.0,38.9,31.7,30.5,0000.1,0022.15,0010.80,0009.34
2021-09-14 21:21:00,,0828.0,5.00,0.00,29.9,29.0,00.0,38.9,31.8,30.8,0000.3,0023.11,0010.70,0009.28
2021-09-14 21:22:00,,0827.9,4.99,0.00,30.0,29.1,00.0,38.9,31.8,30.2,0000.4,0022.31,0010.63,0009.24
2021-09-14 21:23:00,,0827.9,5.01,0.00,30.0,29.2,00.0,38.9,31.9,30.7,0000.4,0021.64,0010.54,0009.20
2021-09-14 21:24:00,,0828.0,4.99,0.00,30.1,29.2,00.0,39.0,31.9,31.1,0000.2,0020.99,0010.48,0009.14
2021-09-14 21:25:00,,0828.0,5.00,0.00,30.0,27.7,00.0,39.0,31.5,30.8,0000.1,0020.32,0010.43,0009.10
2021-09-14 21:26:00,,0828.0,4.99,0.00,29.9,26.2,00.0,38.9,31.1,30.9,0000.1,0020.48,0010.36,0009.04
2021-09-14 21:27:00,,0828.0,5.01,0.00,29.7,26.0,00.0,38.9,31.0,30.5,0000.1,0019.91,0010.25,0008.99
2021-09-14 21:28:00,,0828.0,5.00,0.00,29.7,26.4,00.0,38.9,31.1,31.0,0000.2,0019.82,0010.24,0008.98
2021-09-14 21:29:00,,0828.0,4.99,0.00,29.6,26.9,00.0,38.8,31.2,31.4,0000.5,0019.23,0010.18,0008.96
2021-09-14 21:30:00,,0828.0,5.00,0.00,29.6,27.4,00.0,38.8,31.3,31.5,0000.4,0018.85,0010.19,0008.97
2021-09-14 21:31:00,,0828.1,5.01,0.00,29.7,27.8,00.0,38.8,31.4,31.2,0000.5,0019.40,0010.24,0009.00
2021-09-14 21:32:00,,0828.1,4.99,0.00,29.7,28.1,00.0,38.8,31.5,31.0,0000.6,0018.63,0010.33,0009.05
2021-09-14 21:33:00,,0828.1,5.00,0.00,29.7,28.4,00.0,38.8,31.6,30.7,0000.9,0019.30,0010.37,0009.10
2021-09-14 21:34:00,,0828.1,5.01,0.00,29.8,28.6,00.0,38.8,31.6,30.6,0000.9,0020.52,0010.49,0009.15
2021-09-14 21:35:00,,0828.1,5.00,0.00,29.8,28.8,00.0,38.8,31.7,31.0,0000.9,0020.77,0010.52,0009.16
2021-09-14 21:36:00,,0828.0,4.99,0.00,29.9,29.0,00.0,38.8,31.8,31.5,0000.7,0020.81,0010.45,0009.12
2021-09-14 21:37:00,,0828.0,5.00,0.00,29.9,29.1,00.0,38.9,31.8,31.1,0000.8,0021.00,0010.42,0009.06
2021-09-14 21:38:00,,0828.1,5.00,0.00,29.9,28.1,00.0,38.9,31.6,31.0,0000.9,0020.93,0010.33,0008.96
2021-09-14 21:39:00,,0828.0,5.00,0.00,29.8,26.4,00.0,38.9,31.1,30.6,0000.7,0020.80,0010.19,0008.84
2021-09-14 21:40:00,,0828.0,4.99,0.00,29.7,26.0,00.0,38.8,31.0,31.0,0000.3,0021.15,0010.12,0008.74
2021-09-14 21:41:00,,0828.0,5.03,0.00,29.6,26.2,00.0,38.8,31.0,30.8,0000.4,0021.69,0010.00,0008.64
2021-09-14 21:42:00,,0828.0,4.99,0.00,29.5,26.7,00.0,38.8,31.1,31.1,0000.3,0021.31,0009.85,0008.48
2021-09-14 21:43:00,,0828.0,5.00,0.00,29.5,27.1,00.0,38.7,31.2,30.6,0000.4,0021.04,0009.65,0008.34
2021-09-14 21:44:00,,0828.1,4.99,0.00,29.6,27.6,00.0,38.7,31.3,30.3,0000.1,0020.44,0009.57,0008.26
2021-09-14 21:45:00,,0828.1,5.02,0.00,29.6,27.9,00.0,38.7,31.4,30.5,-000.1,0019.74,0009.35,0008.10
2021-09-14 21:46:00,,0828.1,5.00,0.00,29.6,28.2,00.0,38.7,31.4,30.7,-000.2,0019.68,0009.19,0007.97
2021-09-14 21:47:00,,0828.1,5.00,0.00,29.7,28.5,00.0,38.7,31.5,30.2,0000.1,0019.75,0009.12,0007.88
2021-09-14 21:48:00,,0828.1,5.00,0.00,29.7,28.7,00.0,38.7,31.6,29.9,0000.1,0019.20,0009.01,0007.85
2021-09-14 21:49:00,,0828.1,5.00,0.00,29.8,28.8,00.0,38.7,31.7,29.7,0000.0,0019.48,0008.99,0007.86
2021-09-14 21:50:00,,0828.0,5.00,0.00,29.8,29.0,00.0,38.8,31.7,29.9,0000.3,0019.54,0009.04,0007.91
2021-09-14 21:51:00,,0827.9,5.00,0.00,29.9,28.6,00.0,38.8,31.7,29.7,0000.3,0019.68,0009.19,0008.01
2021-09-14 21:52:00,,0827.9,5.01,0.00,29.8,26.9,00.0,38.8,31.2,30.1,-000.0,0019.27,0009.31,0008.11
2021-09-14 21:53:00,,0827.9,4.99,0.00,29.6,25.9,00.0,38.7,30.9,30.7,-000.0,0018.52,0009.39,0008.19
2021-09-14 21:54:00,,0827.9,5.00,0.00,29.5,26.0,00.0,38.7,30.9,30.2,-000.3,0018.67,0009.57,0008.35
2021-09-14 21:55:00,,0827.9,5.01,0.00,29.4,26.4,00.0,38.7,30.9,30.7,-000.2,0018.61,0009.58,0008.41
2021-09-14 21:56:00,,0827.9,4.99,0.00,29.4,26.9,00.0,38.6,31.0,30.8,-000.1,0018.60,0009.74,0008.53
2021-09-14 21:57:00,,0827.9,5.00,0.00,29.4,27.4,00.0,38.6,31.2,31.4,0000.3,0018.68,0009.89,0008.66
2021-09-14 21:58:00,,0827.9,5.02,0.00,29.5,27.8,00.0,38.6,31.3,30.7,0000.3,0018.45,0010.13,0008.90
2021-09-14 21:59:00,,0827.9,4.99,0.00,29.5,28.1,00.0,38.6,31.4,30.8,0000.4,0018.51,0010.46,0009.19
